Home   Weather   Ringgold   Past weeks
Flag for USA

Past Weather in Ringgold, Georgia, USA — Yesterday and Last 2 Weeks

Now
72 °F

Clear.


Feels Like: 73 °F
Forecast: 86 / 67 °F
Wind: No wind

Location: Lovell Field

Current Time: Jun 16, 2019 at 3:20:29 am

Latest Report: Jun 16, 2019 at 1:53 am


Visibility: 10 mi

Pressure: 30.01 "Hg

Humidity: 76%

Dew Point: 64 °F

Location of RinggoldLocation

Past Weather in Ringgold — Graph

°F

Ringgold Temperature Yesterday

Maximum temperature yesterday: 87 °F (at 4:53 pm)
Minimum temperature yesterday: 61 °F (at 1:53 am)
Average temperature yesterday: 74 °F

High & Low Weather Summary for the Past Weeks

 TemperatureHumidityPressure
High92 °F (Jun 2, 5:53 pm)100% (Jun 9, 8:13 am)30.22 "Hg (Jun 9, 8:13 am)
Low54 °F (Jun 14, 4:53 am)25% (Jun 14, 6:53 pm)29.65 "Hg (Jun 7, 4:53 pm)
Average74 °F73%29.93 "Hg
* Reported Jun 1 1:53 am — Jun 16 1:53 am, Ringgold. Weather by CustomWeather, © 2019

Note: Actual official high and low records may vary slightly from our data, if they occured in-between our weather recording intervals... More about our weather records

Advertising

Ringgold Weather History for the Previous 24 Hours

Scroll right to see more
 ConditionsComfort  
Time TempWeatherWind HumidityBarometerVisibility
1:53 am
Sun, Jun 16
72 °FClear.No wind76%30.01 "Hg10 mi
12:53 am74 °FClear.3 mph71%30.02 "Hg10 mi
11:53 pm
Sat, Jun 15
75 °FPassing clouds.6 mph69%30.01 "Hg10 mi
10:53 pm77 °FPassing clouds.6 mph64%29.99 "Hg10 mi
9:53 pm79 °FPassing clouds.7 mph58%30.00 "Hg10 mi
8:53 pm82 °FPassing clouds.8 mph51%30.00 "Hg10 mi
7:53 pm84 °FPassing clouds.9 mph48%30.00 "Hg10 mi
6:53 pm86 °FScattered clouds.15 mph43%30.00 "Hg10 mi
5:53 pm85 °FScattered clouds.13 mph45%30.01 "Hg10 mi
4:53 pm87 °FBroken clouds.13 mph40%30.03 "Hg10 mi
3:53 pm86 °FBroken clouds.13 mph43%30.06 "Hg10 mi
2:53 pm85 °FBroken clouds.10 mph45%30.07 "Hg10 mi
1:53 pm85 °FBroken clouds.9 mph46%30.09 "Hg10 mi
12:53 pm82 °FBroken clouds.10 mph51%30.11 "Hg10 mi
11:53 am80 °FBroken clouds.8 mph52%30.11 "Hg10 mi
10:53 am76 °FBroken clouds.6 mph56%30.12 "Hg10 mi
9:53 am72 °FBroken clouds.6 mph55%30.14 "Hg10 mi
8:53 am67 °FBroken clouds.3 mph63%30.15 "Hg10 mi
7:53 am64 °FBroken clouds.No wind84%30.15 "Hg10 mi
6:53 am63 °FBroken clouds.No wind81%30.14 "Hg10 mi
5:53 am62 °FPassing clouds.No wind86%30.12 "Hg10 mi
4:53 am61 °FClear.No wind87%30.11 "Hg10 mi
3:53 am61 °FClear.No wind87%30.10 "Hg10 mi
Weather by CustomWeather, © 2019

See weather overview